Tracking 30918 objects as of 2-Jul-2025
HD Live streaming from Space Station
objects crossing your sky now

TIANQI 34

Track TIANQI 34 now!
10-day predictions


NORAD ID: 62366
Int'l Code: 2024-245B
Perigee: 901.9 km
Apogee: 906.8 km
Inclination: 45.0 °
Period: 102.9 minutes
Semi major axis: 7275 km
RCS: Unknown
Launch date: December 19, 2024
Source: People's Republic of China (PRC)
Launch site: Yellow Sea Launch Area, China (YSLA)
Your satellite tracking list
IRIDIUM 33 DEB
Track 1 satellite(s)




NASA's NSSDC Master Catalog

Two Line Element Set (TLE):
1 62366U 24245B   25182.89627716  .00000067  00000-0  13413-3 0  9992
2 62366  44.9807  80.2061 0003408 170.5903 189.4994 13.99014611 27271
Source of the keplerian elements: AFSPC